Change the Weather History Date:

Thursday, February 6, 2014

  Actual Average Record
Temperature  
Mean Temperature 5 °F -  
Max Temperature 10 °F 40 °F 71 °F (2009)
Min Temperature 0 °F 24 °F 0 °F (2014)
Degree Days  
Heating Degree Days 60    
Moisture  
Dew Point -6 °F    
Average Humidity 59    
Maximum Humidity 73    
Minimum Humidity 44    
Precipitation  
Precipitation 0.00 in - - ()
Sea Level Pressure  
Sea Level Pressure 30.64 in    
Wind  
Wind Speed 4 mph (NW)    
Max Wind Speed 9 mph    
Max Gust Speed -    
Visibility 10 miles    
Events      
Averages and records for this station are not official NWS values.
T = Trace of Precipitation, MM = Missing Value Source: NWS Daily Summary

Daily Weather History Graph

Daily Weather History Graph

Search for Another Location

Airport or City:

Trip Planner

Search our weather history database for the weather conditions in past years. The results will help you decide how hot, cold, wet, or windy it might be!

Date:

Astronomy

Feb. 06, 2014 Rise Set
Actual Time 7:20 AM CST 5:45 PM CST
Civil Twilight 6:52 AM CST 6:13 PM CST
Nautical Twilight 6:20 AM CST 6:44 PM CST
Astronomical Twilight 5:49 AM CST 7:16 PM CST
Moon 11:17 AM CST (2/6) 12:36 AM CST (2/6)
Length of Visible Light 11h 20m
Length of Day
10h 25m
Waxing Crescent, 49% of the Moon is Illuminated
Feb 6
Waxing Crescent
Feb 6
First Quarter
Feb 14
Full
Feb 22
Last Quarter
Mar 1
New

Hourly Weather History & Observations

Time (CST) Temp. Windchill Dew Point Humidity Pressure Visibility Wind Dir Wind Speed Gust Speed Precip Events Conditions
12:54 AM 3.0 °F -8.0 °F -4.0 °F 73% 30.69 in 10.0 mi North 5.8 mph - N/A   Clear
1:54 AM 1.9 °F - -5.1 °F 72% 30.70 in 10.0 mi Calm Calm - N/A   Clear
2:54 AM 1.9 °F -7.6 °F -6.0 °F 69% 30.71 in 10.0 mi WNW 4.6 mph - N/A   Scattered Clouds
3:54 AM 1.9 °F -7.6 °F -6.0 °F 69% 30.70 in 10.0 mi NW 4.6 mph - N/A   Partly Cloudy
4:54 AM 1.0 °F -6.7 °F -6.0 °F 72% 30.70 in 10.0 mi NW 3.5 mph - N/A   Clear
5:54 AM -0.0 °F -9.9 °F -7.1 °F 72% 30.71 in 10.0 mi NW 4.6 mph - N/A   Clear
6:54 AM -0.0 °F -9.9 °F -7.1 °F 72% 30.71 in 10.0 mi WNW 4.6 mph - N/A   Clear
7:54 AM -0.0 °F -9.9 °F -8.0 °F 69% 30.72 in 10.0 mi West 4.6 mph - N/A   Clear
8:54 AM 1.0 °F -8.7 °F -7.1 °F 69% 30.72 in 10.0 mi NW 4.6 mph - N/A   Clear
9:54 AM 3.0 °F -4.4 °F -6.0 °F 66% 30.71 in 10.0 mi NW 3.5 mph - N/A   Clear
10:54 AM 7.0 °F - -4.0 °F 61% 30.70 in 10.0 mi Calm Calm - N/A   Clear
11:54 AM 9.0 °F -2.2 °F -4.0 °F 56% 30.67 in 10.0 mi NNW 6.9 mph - N/A   Mostly Cloudy
12:54 PM 10.0 °F 1.8 °F -5.1 °F 51% 30.64 in 10.0 mi West 4.6 mph - N/A   Mostly Cloudy
1:54 PM 10.9 °F 1.4 °F -6.0 °F 47% 30.61 in 10.0 mi NW 5.8 mph - N/A   Mostly Cloudy
2:54 PM 10.9 °F -1.8 °F -6.0 °F 47% 30.60 in 10.0 mi NW 9.2 mph - N/A   Overcast
3:54 PM 10.9 °F 0.2 °F -7.1 °F 44% 30.59 in 10.0 mi NW 6.9 mph - N/A   Overcast
4:54 PM 10.0 °F 1.8 °F -7.1 °F 46% 30.58 in 10.0 mi NW 4.6 mph - N/A   Mostly Cloudy
5:54 PM 8.1 °F -0.5 °F -8.0 °F 48% 30.56 in 10.0 mi NW 4.6 mph - N/A   Clear
6:54 PM 7.0 °F -1.7 °F -7.1 °F 53% 30.56 in 10.0 mi NW 4.6 mph - N/A   Clear
7:54 PM 7.0 °F - -7.1 °F 53% 30.56 in 10.0 mi Calm Calm - N/A   Clear
8:54 PM 7.0 °F - -6.0 °F 55% 30.58 in 10.0 mi Calm Calm - N/A   Overcast
9:54 PM 8.1 °F 1.4 °F -6.0 °F 53% 30.56 in 10.0 mi West 3.5 mph - N/A   Overcast
10:54 PM 8.1 °F -0.5 °F -6.0 °F 53% 30.56 in 10.0 mi WNW 4.6 mph - N/A   Overcast
11:54 PM 7.0 °F - -6.0 °F 55% 30.53 in 10.0 mi Calm Calm - N/A   Overcast